FW9543 Weather Reports


Display with metric or nautical units.
time (UTC)temp
F
wind
direction
speed
MPH
gust
MPH
rain 1hr
in
rain 24hr
in
rain mn
in
humidity
%
barometer
mb
20260507155523 58 311 6.0 20.0 0.00 0.00 0.00 37 1012.7
20260507155022 58 302 10.0 20.0 0.00 0.00 0.00 36 1012.7
20260507154522 57 309 9.0 17.0 0.00 0.00 0.00 37 1012.7
20260507154024 57 297 10.0 17.0 0.00 0.00 0.00 36 1012.9
20260507153519 57 338 10.0 16.0 0.00 0.00 0.00 37 1012.9
20260507153019 56 360 11.0 16.0 0.00 0.00 0.00 36 1012.8
20260507152520 55 323 7.0 12.0 0.00 0.00 0.00 40 1012.8
20260507152019 54 309 7.0 14.0 0.00 0.00 0.00 40 1012.8
20260507151516 54 338 8.0 14.0 0.00 0.00 0.00 40 1012.8
20260507151015 54 320 9.0 13.0 0.00 0.00 0.00 41 1012.8
20260507150515 53 292 8.0 15.0 0.00 0.00 0.00 40 1012.7
20260507150015 53 323 9.0 16.0 0.00 0.00 0.00 40 1012.7
20260507145514 54 317 11.0 19.0 0.00 0.00 0.00 40 1012.8
20260507145019 55 307 11.0 19.0 0.00 0.00 0.00 39 1012.6
20260507144514 55 308 10.0 19.0 0.00 0.00 0.00 40 1012.6
20260507144014 55 311 14.0 19.0 0.00 0.00 0.00 38 1012.6
20260507143516 55 325 13.0 23.0 0.00 0.00 0.00 37 1012.5
20260507143019 55 314 12.0 23.0 0.00 0.00 0.00 39 1012.5
20260507142511 54 323 13.0 20.0 0.00 0.00 0.00 38 1012.4
20260507142011 54 323 13.0 20.0 0.00 0.00 0.00 38 1012.3
20260507141508 54 324 13.0 19.0 0.00 0.00 0.00 38 1012.2
20260507141007 54 293 11.0 22.0 0.00 0.00 0.00 39 1012.2
20260507140506 53 313 12.0 22.0 0.00 0.00 0.00 39 1012.4
20260507140005 53 321 12.0 21.0 0.00 0.00 0.00 40 1012.4
20260507135605 53 298 13.0 21.0 0.00 0.00 0.00 39 1012.3
20260507135002 52 336 12.0 18.0 0.00 0.00 0.00 40 1012.3
20260507134505 52 311 9.0 16.0 0.00 0.00 0.00 41 1012.2
20260507134100 52 321 9.0 17.0 0.00 0.00 0.00 41 1012.2
20260507133559 51 298 9.0 17.0 0.00 0.00 0.00 43 1012.3
20260507133105 51 302 9.0 16.0 0.00 0.00 0.00 44 1012.2
20260507132557 50 292 9.0 16.0 0.00 0.00 0.00 44 1012.1
20260507132055 50 318 9.0 16.0 0.00 0.00 0.00 45 1012.1
20260507131554 50 304 8.0 14.0 0.00 0.00 0.00 47 1012.1
20260507131052 49 315 9.0 14.0 0.00 0.00 0.00 47 1012.0
20260507130550 48 328 7.0 13.0 0.00 0.00 0.00 48 1011.9
20260507130049 47 315 7.0 12.0 0.00 0.00 0.00 49 1011.9
20260507125548 47 316 6.0 11.0 0.00 0.00 0.00 50 1011.8
20260507125049 46 327 6.0 10.0 0.00 0.00 0.00 50 1011.9
20260507124547 46 298 7.0 10.0 0.00 0.00 0.00 51 1011.8
20260507124047 45 306 5.0 9.0 0.00 0.00 0.00 51 1011.8
20260507123548 45 300 4.0 8.0 0.00 0.00 0.00 52 1011.7
20260507123048 45 293 5.0 8.0 0.00 0.00 0.00 52 1011.8
20260507122546 44 292 4.0 8.0 0.00 0.00 0.00 52 1011.7
20260507122046 43 316 3.0 6.0 0.00 0.00 0.00 54 1011.7
20260507121545 43 310 3.0 5.0 0.00 0.00 0.00 54 1011.5
20260507121046 42 304 2.0 5.0 0.00 0.00 0.00 54 1011.4
20260507120545 42 297 2.0 5.0 0.00 0.00 0.00 53 1011.4
20260507120053 42 298 2.0 5.0 0.00 0.00 0.00 52 1011.3
20260507115545 43 302 3.0 5.0 0.00 0.00 0.00 52 1011.3
20260507115047 43 302 3.0 6.0 0.00 0.00 0.00 51 1011.2
20260507114544 43 308 3.0 6.0 0.00 0.00 0.00 51 1011.2
20260507114043 44 299 3.0 8.0 0.00 0.00 0.00 50 1011.1
20260507113542 44 304 4.0 8.0 0.00 0.00 0.00 49 1011.1
20260507113048 45 310 4.0 8.0 0.00 0.00 0.00 49 1011.0
20260507112542 45 296 4.0 8.0 0.00 0.00 0.00 48 1010.9
20260507112043 46 306 4.0 8.0 0.00 0.00 0.00 47 1011.0
20260507111541 46 304 5.0 9.0 0.00 0.00 0.00 47 1011.0
20260507111040 46 312 5.0 9.0 0.00 0.00 0.00 46 1011.0
20260507110540 47 310 6.0 11.0 0.00 0.00 0.00 46 1010.9
20260507110040 47 308 7.0 12.0 0.00 0.00 0.00 46 1011.0
20260507105539 47 279 8.0 13.0 0.00 0.00 0.00 45 1011.0
20260507105039 47 290 9.0 14.0 0.00 0.00 0.00 46 1011.0
20260507104538 47 281 9.0 14.0 0.00 0.00 0.00 46 1010.9
20260507104038 47 279 9.0 13.0 0.00 0.00 0.00 46 1010.9
20260507103538 47 273 10.0 13.0 0.00 0.00 0.00 46 1010.9
20260507103036 47 283 8.0 13.0 0.00 0.00 0.00 45 1010.9
20260507102536 47 285 9.0 14.0 0.00 0.00 0.00 45 1010.9
20260507102035 47 269 10.0 14.0 0.00 0.00 0.00 46 1011.0
20260507101534 46 269 10.0 12.0 0.00 0.00 0.00 47 1011.0
20260507101034 45 277 8.0 12.0 0.00 0.00 0.00 47 1011.0
20260507100530 45 276 9.0 12.0 0.00 0.00 0.00 48 1011.0
20260507100036 44 266 8.0 11.0 0.00 0.00 0.00 48 1010.9
20260507095528 43 264 7.0 11.0 0.00 0.00 0.00 49 1011.0
20260507095027 42 261 7.0 11.0 0.00 0.00 0.00 49 1011.0
20260507094526 42 237 5.0 9.0 0.00 0.00 0.00 48 1011.0
20260507094025 42 269 5.0 9.0 0.00 0.00 0.00 47 1011.1
20260507093529 42 263 5.0 11.0 0.00 0.00 0.00 46 1011.1
20260507093025 42 250 7.0 13.0 0.00 0.00 0.00 46 1011.1
20260507092524 42 273 7.0 13.0 0.00 0.00 0.00 45 1011.1
20260507092027 42 269 7.0 13.0 0.00 0.00 0.00 45 1011.1
20260507091525 42 261 8.0 15.0 0.00 0.00 0.00 44 1011.1
20260507091025 41 240 9.0 15.0 0.00 0.00 0.00 44 1011.2
20260507090523 41 256 8.0 15.0 0.00 0.00 0.00 43 1011.3
20260507090022 41 252 5.0 11.0 0.00 0.00 0.00 42 1011.2
20260507085521 41 252 7.0 11.0 0.00 0.00 0.00 42 1011.2
20260507085021 40 270 6.0 11.0 0.00 0.00 0.00 43 1011.2
20260507084520 39 262 7.0 11.0 0.00 0.00 0.00 42 1011.2
20260507084019 38 232 8.0 11.0 0.00 0.00 0.00 42 1011.2
20260507083519 37 238 7.0 10.0 0.00 0.00 0.00 42 1011.1
20260507083019 37 229 6.0 9.0 0.00 0.00 0.00 40 1011.1
20260507082518 38 234 7.0 9.0 0.00 0.00 0.00 40 1011.2
20260507082018 37 237 6.0 9.0 0.00 0.00 0.00 41 1011.2
20260507081518 37 236 5.0 8.0 0.00 0.00 0.00 41 1011.2
20260507081018 37 234 5.0 8.0 0.00 0.00 0.00 42 1011.3
20260507080518 37 235 5.0 9.0 0.00 0.00 0.00 41 1011.3
20260507080016 36 241 5.0 9.0 0.00 0.00 0.00 42 1011.3
20260507075516 36 229 8.0 11.0 0.00 0.00 0.00 43 1011.3
20260507075015 36 233 8.0 11.0 0.00 0.00 0.00 43 1011.4
20260507074526 36 232 8.0 11.0 0.00 0.00 0.00 44 1011.4
20260507074013 35 242 7.0 9.0 0.00 0.00 0.00 45 1011.5
20260507073512 35 248 5.0 9.0 0.00 0.00 0.00 45 1011.6
20260507073012 36 245 6.0 9.0 0.00 0.00 0.00 44 1011.7
20260507072513 35 237 6.0 9.0 0.00 0.00 0.00 45 1011.6
20260507072011 35 242 6.0 8.0 0.00 0.00 0.00 45 1011.7
20260507071511 36 239 5.0 10.0 0.00 0.00 0.00 44 1011.7
20260507071008 37 235 7.0 12.0 0.00 0.00 0.00 42 1011.8
20260507070508 38 232 7.0 13.0 0.00 0.00 0.00 39 1011.7
20260507070011 41 230 10.0 14.0 0.00 0.00 0.00 37 1011.7
20260507065510 42 246 8.0 12.0 0.00 0.00 0.00 35 1011.6
20260507065006 43 259 7.0 10.0 0.00 0.00 0.00 35 1011.7
20260507064505 43 263 7.0 9.0 0.00 0.00 0.00 35 1011.5
20260507064006 42 275 6.0 9.0 0.00 0.00 0.00 35 1011.5
20260507063502 42 270 7.0 10.0 0.00 0.00 0.00 35 1011.5
20260507063002 40 269 6.0 10.0 0.00 0.00 0.00 37 1011.7
20260507062642 39 270 6.0 9.0 0.00 0.00 0.00 38 1011.8
20260507062059 38 248 6.0 8.0 0.00 0.00 0.00 39 1011.8
20260507061558 39 231 6.0 12.0 0.00 0.00 0.00 37 1011.9
20260507061059 41 245 8.0 14.0 0.00 0.00 0.00 35 1012.0
20260507060556 42 261 9.0 14.0 0.00 0.00 0.00 34 1012.0
20260507060155 41 265 10.0 14.0 0.00 0.00 0.00 35 1012.1
20260507055555 40 263 7.0 12.0 0.00 0.00 0.00 37 1012.1
20260507055055 40 238 8.0 13.0 0.00 0.00 0.00 36 1012.1
20260507054556 40 267 8.0 13.0 0.00 0.00 0.00 36 1012.2
20260507054053 40 264 8.0 12.0 0.00 0.00 0.00 37 1012.3
20260507053553 40 253 7.0 12.0 0.00 0.00 0.00 37 1012.3
20260507053053 40 261 8.0 12.0 0.00 0.00 0.00 37 1012.3
20260507052553 41 246 8.0 13.0 0.00 0.00 0.00 36 1012.4
20260507052052 41 279 9.0 14.0 0.00 0.00 0.00 35 1012.4
20260507051552 40 257 9.0 13.0 0.00 0.00 0.00 37 1012.5
20260507051052 39 269 8.0 13.0 0.00 0.00 0.00 38 1012.5
20260507050551 39 252 8.0 11.0 0.00 0.00 0.00 39 1012.5
20260507050056 38 259 7.0 11.0 0.00 0.00 0.00 39 1012.5
20260507045551 39 249 7.0 11.0 0.00 0.00 0.00 39 1012.6
20260507045051 39 250 7.0 13.0 0.00 0.00 0.00 39 1012.7
20260507044552 39 253 9.0 13.0 0.00 0.00 0.00 39 1012.7
20260507044051 39 234 8.0 12.0 0.00 0.00 0.00 39 1012.8
20260507043550 39 258 8.0 10.0 0.00 0.00 0.00 41 1012.9
20260507043051 39 250 7.0 12.0 0.00 0.00 0.00 42 1012.9
20260507042550 38 243 8.0 12.0 0.00 0.00 0.00 43 1012.9
20260507042052 38 255 7.0 11.0 0.00 0.00 0.00 43 1012.8
20260507041553 38 255 6.0 10.0 0.00 0.00 0.00 43 1012.7
20260507041049 38 254 6.0 9.0 0.00 0.00 0.00 43 1012.8
20260507040552 38 250 5.0 9.0 0.00 0.00 0.00 43 1012.8
20260507040052 39 250 4.0 9.0 0.00 0.00 0.00 42 1012.9
20260507035548 40 240 6.0 9.0 0.00 0.00 0.00 40 1012.9
20260507035048 41 246 5.0 10.0 0.00 0.00 0.00 40 1012.9
20260507034605 42 254 5.0 10.0 0.00 0.00 0.00 39 1013.0
20260507034047 42 253 7.0 9.0 0.00 0.00 0.00 38 1012.9
20260507033547 42 261 6.0 9.0 0.00 0.00 0.00 38 1012.9
20260507033102 42 260 5.0 10.0 0.00 0.00 0.00 38 1012.9
20260507032548 42 273 6.0 10.0 0.00 0.00 0.00 37 1012.8
20260507032046 42 257 6.0 9.0 0.00 0.00 0.00 37 1012.9
20260507031546 43 256 6.0 10.0 0.00 0.00 0.00 37 1012.9
20260507031046 43 261 6.0 9.0 0.00 0.00 0.00 36 1012.9
20260507030546 43 261 6.0 11.0 0.00 0.00 0.00 36 1012.9
20260507030045 43 262 6.0 11.0 0.00 0.00 0.00 36 1012.9
20260507025545 43 269 7.0 11.0 0.00 0.00 0.00 36 1012.9
20260507025045 43 264 7.0 10.0 0.00 0.00 0.00 37 1012.9
20260507024553 42 240 5.0 9.0 0.00 0.00 0.00 36 1012.8
20260507024045 43 255 5.0 8.0 0.00 0.00 0.00 35 1012.8
20260507023545 43 274 6.0 10.0 0.00 0.00 0.00 34 1012.7
20260507023042 44 258 7.0 11.0 0.00 0.00 0.00 33 1012.7
20260507022542 44 259 8.0 12.0 0.00 0.00 0.00 32 1012.7
20260507022042 44 269 9.0 12.0 0.00 0.00 0.00 32 1012.7
20260507021542 44 259 8.0 11.0 0.00 0.00 0.00 33 1012.6
20260507021046 45 246 8.0 11.0 0.00 0.00 0.00 32 1012.6
20260507020542 45 253 7.0 12.0 0.00 0.00 0.00 32 1012.5
20260507020042 45 265 6.0 12.0 0.00 0.00 0.00 32 1012.6
20260507015543 46 263 7.0 11.0 0.00 0.00 0.00 31 1012.6
20260507015041 46 270 8.0 12.0 0.00 0.00 0.00 31 1012.5
20260507014541 47 266 8.0 12.0 0.00 0.00 0.00 31 1012.5
20260507014041 47 252 7.0 10.0 0.00 0.00 0.00 31 1012.5
20260507013538 48 266 7.0 14.0 0.00 0.00 0.00 31 1012.6
20260507013040 48 263 7.0 14.0 0.00 0.00 0.00 31 1012.7
20260507012537 48 279 9.0 13.0 0.00 0.00 0.00 30 1012.7
20260507012037 49 275 10.0 13.0 0.00 0.00 0.00 30 1012.7
20260507011539 48 275 8.0 13.0 0.00 0.00 0.00 29 1012.8
20260507011036 49 274 9.0 14.0 0.00 0.00 0.00 29 1012.9
20260507010536 49 284 10.0 17.0 0.00 0.00 0.00 28 1012.9
20260507010039 49 251 12.0 18.0 0.00 0.00 0.00 28 1012.9
20260507005535 49 278 14.0 18.0 0.00 0.00 0.00 28 1012.9
20260507005034 49 270 11.0 16.0 0.00 0.00 0.00 27 1013.1
20260507004533 49 267 9.0 24.0 0.00 0.00 0.00 27 1013.1
20260507004033 49 258 13.0 24.0 0.00 0.00 0.00 27 1013.1
20260507003533 49 275 12.0 18.0 0.00 0.00 0.00 26 1013.1
20260507003032 49 259 12.0 17.0 0.00 0.00 0.00 26 1013.2
20260507002531 49 290 13.0 17.0 0.00 0.00 0.00 25 1013.2
20260507002031 50 281 13.0 20.0 0.00 0.00 0.00 25 1013.3
20260507001537 50 271 13.0 20.0 0.00 0.00 0.00 26 1013.4
20260507001029 49 273 15.0 20.0 0.00 0.00 0.00 26 1013.4
20260507000528 49 273 10.0 23.0 0.00 0.00 0.00 27 1013.6
20260507000030 49 281 13.0 23.0 0.00 0.00 0.00 27 1013.6
20260506235528 49 273 8.0 19.0 0.00 0.00 0.00 27 1013.5
20260506235028 49 269 13.0 19.0 0.00 0.00 0.00 26 1013.6
20260506234543 50 270 12.0 24.0 0.00 0.00 0.00 26 1013.6
20260506234027 50 260 17.0 24.0 0.00 0.00 0.00 26 1013.5
20260506233527 50 232 9.0 21.0 0.00 0.00 0.00 26 1013.5
20260506233027 50 259 14.0 22.0 0.00 0.00 0.00 27 1013.7
20260506232526 49 271 15.0 23.0 0.00 0.00 0.00 27 1013.6
20260506232029 49 273 12.0 24.0 0.00 0.00 0.00 28 1013.6
20260506231526 49 271 15.0 27.0 0.00 0.00 0.00 27 1013.6
20260506231026 50 273 16.0 31.0 0.00 0.00 0.00 27 1013.5
20260506230525 49 273 16.0 31.0 0.00 0.00 0.00 27 1013.6
20260506230024 50 215 13.0 23.0 0.00 0.00 0.00 28 1013.6
20260506225524 49 271 15.0 23.0 0.00 0.00 0.00 28 1013.8
20260506225023 49 271 14.0 26.0 0.00 0.00 0.00 29 1013.7
20260506224527 49 272 17.0 26.0 0.00 0.00 0.00 28 1013.9
20260506224021 49 263 12.0 21.0 0.00 0.00 0.00 29 1013.9
20260506223520 49 290 12.0 21.0 0.00 0.00 0.00 28 1013.9
20260506223021 48 284 9.0 20.0 0.00 0.00 0.00 30 1014.0
20260506222519 48 285 10.0 21.0 0.00 0.00 0.00 30 1014.1
20260506222018 49 292 15.0 21.0 0.00 0.00 0.00 30 1014.2
20260506221518 48 233 12.0 20.0 0.00 0.00 0.00 31 1014.2
20260506221018 48 253 15.0 21.0 0.00 0.00 0.00 31 1014.3
20260506220516 47 282 11.0 21.0 0.00 0.00 0.00 31 1014.4
20260506220029 47 273 8.0 19.0 0.00 0.00 0.00 33 1014.5
20260506215514 48 272 10.0 19.0 0.00 0.00 0.00 31 1014.7
20260506215014 48 235 13.0 23.0 0.00 0.00 0.00 33 1014.7
20260506214513 48 271 14.0 23.0 0.00 0.00 0.00 32 1014.8
20260506214012 46 284 9.0 21.0 0.00 0.00 0.00 34 1014.9
20260506213511 48 275 12.0 23.0 0.00 0.00 0.00 32 1014.9
20260506213012 47 255 15.0 23.0 0.00 0.00 0.00 34 1014.8
20260506212514 46 275 10.0 15.0 0.00 0.00 0.00 34 1015.0
20260506212011 46 277 8.0 20.0 0.00 0.00 0.00 32 1015.1
20260506211518 47 237 13.0 20.0 0.00 0.00 0.00 33 1015.1
20260506211010 47 249 12.0 18.0 0.00 0.00 0.00 33 1015.2
20260506210509 47 273 9.0 20.0 0.00 0.00 0.00 31 1015.3
20260506210008 48 256 12.0 20.0 0.00 0.00 0.00 32 1015.4
20260506205506 46 282 9.0 20.0 0.00 0.00 0.00 35 1015.3
20260506205008 45 319 10.0 20.0 0.00 0.00 0.00 34 1015.4
20260506204506 46 300 13.0 30.0 0.00 0.00 0.00 33 1015.4
20260506204005 46 314 12.0 30.0 0.00 0.00 0.00 34 1015.5
20260506203506 46 238 10.0 21.0 0.00 0.00 0.00 34 1015.5
20260506203004 46 262 12.0 19.0 0.00 0.00 0.00 34 1015.6
20260506202503 45 281 8.0 15.0 0.00 0.00 0.00 32 1015.6
20260506202003 46 298 6.0 20.0 0.00 0.00 0.00 32 1015.8
20260506201502 46 275 11.0 20.0 0.00 0.00 0.00 31 1015.7
20260506201001 46 295 12.0 23.0 0.00 0.00 0.00 31 1015.7
20260506200501 45 285 8.0 23.0 0.00 0.00 0.00 32 1015.8
20260506200109 45 290 9.0 17.0 0.00 0.00 0.00 33 1015.9
20260506195559 44 355 3.0 18.0 0.00 0.00 0.00 33 1015.8
20260506195059 45 311 11.0 18.0 0.00 0.00 0.00 33 1016.0
20260506194600 45 276 9.0 22.0 0.00 0.00 0.00 32 1016.0
20260506194056 44 266 8.0 17.0 0.00 0.00 0.00 32 1016.0
20260506193556 44 309 7.0 18.0 0.00 0.00 0.00 33 1016.0
20260506193100 44 275 11.0 18.0 0.00 0.00 0.00 34 1016.0
20260506192554 44 244 6.0 17.0 0.00 0.00 0.00 32 1016.1
20260506192053 43 236 10.0 19.0 0.00 0.00 0.00 34 1016.2
20260506191553 44 277 8.0 17.0 0.00 0.00 0.00 33 1016.3
20260506191051 43 311 11.0 17.0 0.00 0.00 0.00 34 1016.2
20260506190552 43 261 7.0 18.0 0.00 0.00 0.00 34 1016.4
20260506190051 42 275 10.0 17.0 0.00 0.00 0.00 36 1016.5
20260506185550 43 302 10.0 19.0 0.00 0.00 0.00 36 1016.5
20260506185049 43 265 9.0 19.0 0.00 0.00 0.00 36 1016.5
20260506184548 42 262 11.0 19.0 0.00 0.00 0.00 35 1016.6
20260506184046 42 333 5.0 16.0 0.00 0.00 0.00 36 1016.6
20260506183547 42 284 10.0 23.0 0.00 0.00 0.00 37 1016.7
20260506183046 42 291 14.0 23.0 0.00 0.00 0.00 37 1016.7
20260506182545 42 221 8.0 17.0 0.00 0.00 0.00 35 1016.8
20260506182045 42 273 10.0 20.0 0.00 0.00 0.00 37 1016.8
20260506181559 42 279 7.0 22.0 0.00 0.00 0.00 37 1016.9
20260506181044 41 277 10.0 19.0 0.00 0.00 0.00 38 1016.9
20260506180544 41 300 6.0 19.0 0.00 0.00 0.00 38 1016.9
20260506180043 41 274 10.0 19.0 0.00 0.00 0.00 38 1017.0
20260506175541 41 264 8.0 15.0 0.00 0.00 0.00 39 1017.1
20260506175042 40 329 6.0 15.0 0.00 0.00 0.00 41 1017.2
20260506174539 40 267 8.0 17.0 0.00 0.00 0.00 38 1017.2
20260506174040 40 271 13.0 17.0 0.00 0.00 0.00 39 1017.3
20260506173538 40 325 3.0 14.0 0.00 0.00 0.00 41 1017.2
20260506173047 39 281 9.0 14.0 0.00 0.00 0.00 41 1017.2
20260506172537 40 277 9.0 18.0 0.00 0.00 0.00 39 1017.3
20260506172037 39 273 13.0 18.0 0.00 0.00 0.00 39 1017.4
20260506171536 39 339 6.0 15.0 0.00 0.00 0.00 44 1017.4
20260506171035 39 331 7.0 18.0 0.00 0.00 0.00 42 1017.5
20260506170534 38 278 8.0 18.0 0.00 0.00 0.00 43 1017.4
20260506170033 38 287 6.0 16.0 0.00 0.00 0.00 42 1017.5
20260506165533 38 329 8.0 18.0 0.00 0.00 0.00 45 1017.5
20260506165033 38 252 10.0 19.0 0.00 0.00 0.00 43 1017.5
20260506164531 38 267 12.0 17.0 0.00 0.00 0.00 41 1017.5
20260506164031 37 265 9.0 16.0 0.00 0.00 0.00 44 1017.5
20260506163529 37 300 5.0 16.0 0.00 0.00 0.00 44 1017.5
20260506163029 37 300 6.0 16.0 0.00 0.00 0.00 44 1017.5
20260506162527 37 294 11.0 17.0 0.00 0.00 0.00 43 1017.6
20260506162027 37 336 10.0 17.0 0.00 0.00 0.00 46 1017.5
20260506161526 36 261 8.0 12.0 0.00 0.00 0.00 47 1017.6
20260506161026 36 293 7.0 13.0 0.00 0.00 0.00 48 1017.5
20260506160529 36 294 8.0 16.0 0.00 0.00 0.00 47 1017.5
20260506160036 36 294 9.0 16.0 0.00 0.00 0.00 46 1017.7